Location: Cahoon Acres
(40.8736°N, 111.8994°W)
Time: 05:30:37
(UTC+00:00)

Transit 4A - All Passes

Search period start: 06 June 2020 00:00
Search period end: 16 June 2020 00:00
Orbit: 868 x 976 km, 66.8° (Epoch: 05 June)

Date Brightness Start Highest point End Pass type
(mag) Time Alt. Az. Time Alt. Az. Time Alt. Az.
06 Jun - 06:24:57 10° SSE 06:29:46 28° ESE 06:34:39 10° NE visible
06 Jun - 08:10:14 10° SW 08:15:48 46° NW 08:21:31 10° NNE visible
06 Jun - 10:02:32 10° NW 10:03:47 11° NNW 10:05:03 10° NNW visible
06 Jun - 15:26:37 10° NNW 15:32:10 34° NE 15:37:49 10° ESE daylight
06 Jun - 17:12:48 10° NW 17:18:39 45° WSW 17:24:36 10° S daylight
07 Jun - 06:33:29 10° S 06:38:53 42° ESE 06:44:23 10° NE visible
07 Jun - 08:20:08 10° WSW 08:25:19 33° NW 08:30:38 10° NNE visible
07 Jun - 13:51:51 10° NNE 13:53:43 11° NNE 13:55:37 10° NE daylight
07 Jun - 15:35:44 10° NNW 15:41:40 47° NE 15:47:44 10° SE daylight
07 Jun - 17:22:30 10° NW 17:27:49 30° WSW 17:33:12 10° SSW daylight
08 Jun - 06:42:22 10° SSW 06:48:04 64° ESE 06:53:56 10° NE visible
08 Jun - 08:30:19 10° W 08:34:55 24° NW 08:39:38 10° N visible
08 Jun - 14:00:06 10° N 14:03:35 15° NE 14:07:06 10° ENE daylight
08 Jun - 15:44:56 10° NNW 15:51:06 68° ENE 15:57:24 10° SE daylight
08 Jun - 17:32:31 10° WNW 17:36:54 20° WSW 17:41:19 10° SSW daylight
09 Jun - 05:09:19 10° SE 05:11:54 13° ESE 05:14:32 10° ENE visible
09 Jun - 06:51:33 10° SSW 06:57:22 86° WNW 07:03:19 10° NNE visible
09 Jun - 08:40:49 10° W 08:44:38 17° NW 08:48:30 10° N visible
09 Jun - 14:08:51 10° N 14:13:21 20° NE 14:17:53 10° E daylight
09 Jun - 15:54:14 10° NNW 16:00:27 85° WSW 16:06:47 10° SSE daylight
09 Jun - 17:43:19 10° WNW 17:45:55 13° WSW 17:48:31 10° SW daylight
10 Jun - 05:16:41 10° SSE 05:20:55 21° ESE 05:25:11 10° ENE visible
10 Jun - 07:01:00 10° SW 07:06:43 59° WNW 07:12:36 10° NNE visible
10 Jun - 08:51:49 10° WNW 08:54:25 13° NW 08:57:04 10° N visible
10 Jun - 14:17:47 10° N 14:23:00 28° NE 14:28:18 10° ESE daylight
10 Jun - 16:03:39 10° NW 16:09:43 58° WSW 16:15:55 10° SSE daylight
11 Jun - 05:24:56 10° S 05:30:00 32° ESE 05:35:09 10° NE visible
11 Jun - 07:10:43 10° WSW 07:16:11 41° NW 07:21:47 10° NNE visible
11 Jun - 14:26:50 10° NNW 14:32:34 38° NE 14:38:24 10° ESE daylight
11 Jun - 16:13:13 10° NW 16:18:56 39° WSW 16:24:44 10° S daylight
12 Jun - 05:33:35 10° S 05:39:08 49° ESE 05:44:49 10° NE visible
12 Jun - 07:20:42 10° WSW 07:25:44 29° NW 07:30:51 10° NNE visible
12 Jun - 12:51:39 10° N 12:54:15 13° NE 12:56:53 10° ENE daylight
12 Jun - 14:35:59 10° NNW 14:42:03 54° NE 14:48:13 10° SE daylight
12 Jun - 16:23:01 10° NW 16:28:04 26° WSW 16:33:11 10° SSW daylight
13 Jun - 05:42:35 10° SSW 05:48:22 74° ESE 05:54:18 10° NNE visible
13 Jun - 07:30:59 10° W 07:35:22 21° NW 07:39:49 10° N visible
13 Jun - 13:00:10 10° N 13:04:05 17° NE 13:08:02 10° E daylight
13 Jun - 14:45:13 10° NNW 14:51:27 77° ENE 14:57:47 10° SSE daylight
13 Jun - 16:33:14 10° WNW 16:37:07 17° WSW 16:41:04 10° SW daylight
14 Jun - 04:08:45 10° SE 04:12:06 16° ESE 04:15:29 10° ENE visible
14 Jun - 05:51:52 10° SW 05:57:40 75° WNW 06:03:38 10° NNE visible
14 Jun - 07:41:38 10° WNW 07:45:06 16° NW 07:48:36 10° N visible
14 Jun - 13:09:00 10° N 13:13:48 23° NE 13:18:40 10° E daylight
14 Jun - 14:54:34 10° NNW 15:00:47 74° WSW 15:07:05 10° SSE daylight
14 Jun - 16:44:54 10° W 16:46:07 11° W 16:47:19 10° WSW daylight
15 Jun - 04:16:33 10° SSE 04:21:07 25° ESE 04:25:47 10° NE visible
15 Jun - 06:01:25 10° SW 06:07:04 51° NW 06:12:53 10° NNE visible
15 Jun - 07:52:55 10° NW 07:54:56 12° NNW 07:56:58 10° NNW visible
15 Jun - 13:17:59 10° NNW 13:23:26 31° NE 13:28:57 10° ESE daylight
15 Jun - 15:04:02 10° NW 15:10:01 51° WSW 15:16:06 10° S daylight
